Date String (YYYY-MM-DD hh:mm:ss) UTC,Instrument flags,absolute air pressure of the measurement (hPa),sample flow rate (lpm),inlet stack bypass flow (lpm),air temperature of the measurement (°C),ambient temperature measured by the external sensor (°C),aerosol sample conditioner tube jacket temperature (°C),OPC LED temperature (°C),internal box temperature (°C),relative humidity of the measurement (%),span deviation,mass concentration of particles derived from Lorenz-Mie calculation of OPC scattering (μg/m³),mass concentration of particles derived from Lorenz-Mie calculation of OPC scattering (μg/m³),mass concentration of particles derived from Lorenz-Mie calculation of OPC scattering (μg/m³)
DateTimeUTC,F1_M11,P_M11,Q1_M11,Q2_M11,T1_M11,T2_M11,T3_M11,T4_M11,T5_M11,U1_M11,ZSPAN_M11,X2_M11,X0_M11,X1_M11
2024-04-29 21:00:00,SystemResetWarning,0824.3,5.01,000.00,025.7,025.1,000.0,033.9,027.6,013.6,0000.0,0003.63,0011.03,0001.71
2024-04-29 21:01:00,SystemResetWarning,0824.3,5.00,000.00,025.7,025.1,000.0,033.9,027.6,014.2,0000.0,0003.57,0010.78,0001.70
2024-04-29 21:02:00,SystemResetWarning,0824.3,4.99,000.00,025.7,025.2,000.0,033.9,027.6,013.6,0000.0,0003.58,0010.15,0001.69
2024-04-29 21:03:00,SystemResetWarning,0824.2,5.00,000.00,025.8,025.2,000.0,034.0,027.7,013.5,0000.0,0003.61,0009.88,0001.71
2024-04-29 21:04:00,SystemResetWarning,0824.2,4.99,000.00,025.8,025.3,000.0,034.0,027.8,013.3,0000.0,0003.61,0009.70,0001.71
2024-04-29 21:05:00,SystemResetWarning,0824.2,5.02,000.00,025.9,025.3,000.0,034.0,027.8,013.3,0000.0,0003.62,0009.50,0001.70
2024-04-29 21:06:00,SystemResetWarning,0824.1,4.99,000.00,025.8,024.7,000.0,034.1,027.4,014.2,0000.0,0003.60,0009.39,0001.69
2024-04-29 21:07:00,SystemResetWarning,0824.0,4.99,000.00,025.5,022.5,000.0,034.1,026.2,014.0,0000.0,0003.55,0010.03,0001.68
2024-04-29 21:08:00,SystemResetWarning,0823.9,5.00,000.00,025.1,021.8,000.0,034.1,025.6,014.2,0000.0,0003.52,0010.10,0001.68
2024-04-29 21:09:00,SystemResetWarning,0824.0,5.01,000.00,024.9,022.2,000.0,033.9,025.7,013.8,0000.0,0003.47,0009.89,0001.68
2024-04-29 21:10:00,SystemResetWarning,0824.0,4.99,000.00,024.9,022.6,000.0,033.8,026.1,014.2,0000.0,0003.46,0009.90,0001.66
2024-04-29 21:11:00,SystemResetWarning,0824.0,5.00,000.00,024.9,022.9,000.0,033.7,026.4,014.0,0000.0,0003.48,0009.71,0001.64
2024-04-29 21:12:00,SystemResetWarning,0824.0,4.99,000.00,025.0,023.3,000.0,033.6,026.6,013.9,0000.0,0003.52,0010.14,0001.63
2024-04-29 21:13:00,SystemResetWarning,0824.0,5.01,000.00,025.0,023.6,000.0,033.6,026.7,013.9,0000.0,0003.52,0010.31,0001.62
2024-04-29 21:14:00,SystemResetWarning,0824.0,5.00,000.00,025.1,023.8,000.0,033.6,026.8,013.7,0000.0,0003.48,0010.62,0001.62
2024-04-29 21:15:00,SystemResetWarning,0824.0,4.99,000.00,025.1,024.0,000.0,033.6,026.9,013.8,0000.0,0003.44,0010.84,0001.65
2024-04-29 21:16:00,SystemResetWarning,0824.0,4.99,000.00,025.2,024.2,000.0,033.6,027.0,013.5,0000.0,0003.45,0011.63,0001.66
2024-04-29 21:17:00,SystemResetWarning,0823.9,5.01,000.00,025.2,024.4,000.0,033.6,027.1,014.0,0000.0,0003.44,0011.72,0001.67
2024-04-29 21:18:00,SystemResetWarning,0824.0,5.00,000.00,025.3,024.5,000.0,033.6,027.2,013.4,0000.0,0003.44,0011.11,0001.66
2024-04-29 21:19:00,SystemResetWarning,0824.0,5.01,000.00,025.3,024.6,000.0,033.6,027.2,013.4,0000.0,0003.47,0010.61,0001.67
2024-04-29 21:20:00,SystemResetWarning,0824.0,5.00,000.00,025.4,024.7,000.0,033.6,027.3,013.3,0000.0,0003.52,0010.72,0001.67
2024-04-29 21:21:00,SystemResetWarning,0824.0,5.00,000.00,025.5,024.8,000.0,033.7,027.4,013.8,0000.0,0003.54,0010.74,0001.69
2024-04-29 21:22:00,SystemResetWarning,0824.0,5.00,000.00,025.5,024.9,000.0,033.7,027.4,014.2,0000.0,0003.53,0010.65,0001.72
2024-04-29 21:23:00,SystemResetWarning,0824.0,5.00,000.00,025.6,025.0,000.0,033.7,027.5,013.7,0000.0,0003.50,0010.06,0001.73
2024-04-29 21:24:00,SystemResetWarning,0824.0,5.01,000.00,025.6,025.1,000.0,033.8,027.6,012.9,0000.0,0003.49,0009.91,0001.74
2024-04-29 21:25:00,SystemResetWarning,0823.9,5.00,000.00,025.7,025.1,000.0,033.8,027.6,012.5,0000.0,0003.52,0009.54,0001.73
2024-04-29 21:26:00,SystemResetWarning,0823.9,5.00,000.00,025.7,025.2,000.0,033.8,027.6,012.9,0000.0,0003.59,0009.19,0001.74
2024-04-29 21:27:00,SystemResetWarning,0823.8,5.00,000.00,025.8,025.3,000.0,033.9,027.7,013.1,0000.0,0003.60,0008.21,0001.74
2024-04-29 21:28:00,SystemResetWarning,0823.8,4.99,000.00,025.8,025.1,000.0,033.9,027.6,012.8,0000.0,0003.59,0008.23,0001.74
2024-04-29 21:29:00,SystemResetWarning,0823.8,4.99,000.00,025.6,023.3,000.0,034.0,026.5,013.1,0000.0,0003.61,0008.43,0001.75
2024-04-29 21:30:00,SystemResetWarning,0823.8,5.00,000.00,025.1,021.6,000.0,034.0,025.5,013.7,0000.0,0003.62,0008.62,0001.76
2024-04-29 21:31:00,SystemResetWarning,0823.8,5.02,000.00,024.8,021.8,000.0,033.9,025.5,014.1,0000.0,0003.65,0008.76,0001.77
2024-04-29 21:32:00,SystemResetWarning,0823.8,4.99,000.00,024.7,022.2,000.0,033.7,025.8,014.1,0000.0,0003.63,0008.75,0001.76
2024-04-29 21:33:00,SystemResetWarning,0823.8,4.99,000.00,024.8,022.6,000.0,033.6,026.1,013.7,0000.0,0003.65,0008.88,0001.76
2024-04-29 21:34:00,SystemResetWarning,0823.8,5.00,000.00,024.8,023.0,000.0,033.5,026.4,013.6,0000.0,0003.71,0009.98,0001.77
2024-04-29 21:35:00,SystemResetWarning,0823.8,5.00,000.00,024.9,023.3,000.0,033.5,026.6,013.9,0000.0,0003.72,0010.53,0001.77
2024-04-29 21:36:00,SystemResetWarning,0823.8,5.00,000.00,024.9,023.6,000.0,033.5,026.7,013.8,0000.0,0003.70,0010.70,0001.76
2024-04-29 21:37:00,SystemResetWarning,0823.8,5.00,000.00,025.0,023.8,000.0,033.5,026.8,013.7,0000.0,0003.71,0010.76,0001.76
2024-04-29 21:38:00,SystemResetWarning,0823.8,5.00,000.00,025.0,024.0,000.0,033.4,026.9,013.2,0000.0,0003.69,0010.93,0001.76
2024-04-29 21:39:00,SystemResetWarning,0823.8,4.99,000.00,025.1,024.2,000.0,033.5,027.0,013.4,0000.0,0003.72,0011.09,0001.77
2024-04-29 21:40:00,SystemResetWarning,0823.8,5.00,000.00,025.2,024.4,000.0,033.5,027.1,012.9,0000.0,0003.74,0011.02,0001.80
2024-04-29 21:41:00,SystemResetWarning,0823.8,5.00,000.00,025.2,024.5,000.0,033.5,027.1,013.0,0000.0,0003.70,0010.72,0001.79
2024-04-29 21:42:00,SystemResetWarning,0823.8,5.01,000.00,025.3,024.6,000.0,033.5,027.2,013.2,0000.0,0003.67,0010.61,0001.79
2024-04-29 21:43:00,SystemResetWarning,0823.8,5.01,000.00,025.4,024.7,000.0,033.5,027.3,013.5,0000.0,0003.68,0010.74,0001.80
2024-04-29 21:44:00,SystemResetWarning,0823.8,4.99,000.00,025.4,024.8,000.0,033.6,027.3,013.4,0000.0,0003.68,0010.60,0001.79
2024-04-29 21:45:00,SystemResetWarning,0823.8,5.00,000.00,025.5,024.9,000.0,033.6,027.4,013.3,0000.0,0003.67,0009.65,0001.79
2024-04-29 21:46:00,SystemResetWarning,0823.8,5.00,000.00,025.5,025.0,000.0,033.6,027.4,013.4,0000.0,0003.69,0009.08,0001.81
2024-04-29 21:47:00,SystemResetWarning,0823.8,5.00,000.00,025.6,025.0,000.0,033.7,027.5,013.7,0000.0,0003.73,0008.99,0001.83
2024-04-29 21:48:00,SystemResetWarning,0823.8,5.00,000.00,025.6,025.1,000.0,033.7,027.6,013.8,0000.0,0003.71,0008.89,0001.83
2024-04-29 21:49:00,SystemResetWarning,0823.8,4.99,000.00,025.7,025.2,000.0,033.8,027.6,013.1,0000.0,0003.74,0008.81,0001.84
2024-04-29 21:50:00,SystemResetWarning,0823.8,5.00,000.00,025.7,025.2,000.0,033.8,027.6,012.8,0000.0,0003.71,0008.42,0001.84
2024-04-29 21:51:00,SystemResetWarning,0823.7,5.00,000.00,025.8,025.0,000.0,033.9,027.5,012.5,0000.0,0003.66,0008.23,0001.82
2024-04-29 21:52:00,SystemResetWarning,0823.6,5.00,000.00,025.5,023.2,000.0,033.9,026.5,012.8,0000.0,0003.70,0008.29,0001.81
2024-04-29 21:53:00,SystemResetWarning,0823.6,5.01,000.00,025.2,022.5,000.0,033.9,026.0,013.3,0000.0,0003.69,0008.27,0001.81
2024-04-29 21:54:00,SystemResetWarning,0823.6,5.01,000.00,025.1,022.8,000.0,033.8,026.1,013.3,0000.0,0003.69,0008.30,0001.79
2024-04-29 21:55:00,SystemResetWarning,0823.6,4.99,000.00,025.0,023.1,000.0,033.7,026.4,013.3,0000.0,0003.69,0008.31,0001.78
2024-04-29 21:56:00,SystemResetWarning,0823.6,5.01,000.00,025.1,023.4,000.0,033.7,026.6,014.0,0000.0,0003.68,0009.03,0001.78
2024-04-29 21:57:00,SystemResetWarning,0823.6,5.00,000.00,025.1,023.7,000.0,033.6,026.8,013.8,0000.0,0003.65,0009.53,0001.75
2024-04-29 21:58:00,SystemResetWarning,0823.6,5.00,000.00,025.2,023.9,000.0,033.6,026.9,014.0,0000.0,0003.63,0009.82,0001.74
2024-04-29 21:59:00,SystemResetWarning,0823.6,5.00,000.00,025.2,024.2,000.0,033.6,027.0,014.2,0000.0,0003.62,0009.92,0001.72
